Location: Cheyres
(46.8153°N, 6.7877°E)
Time: 01:34:32
(UTC+00:00)

Tiros 1 - Pass Details

Date: 03 June 2022
Orbit: 629 x 663 km, 48.4° (Epoch: 05 July)

Event Time Altitude Azimuth Distance (km) Brightness Sun altitude
Rises 21:53:16 0° 244° (WSW) 2,908 10.5 -17.3°
Reaches altitude 10° 21:55:35 10° 242° (WSW) 2,001 9.6 -17.5°
Maximum altitude 22:00:09 72° 159° (SSE) 663 6.9 -17.8°
Drops below altitude 10° 22:04:46 10° 75° (ENE) 2,012 9.6 -18.1°
Sets 22:07:06 0° 74° (ENE) 2,925 10.5 -18.2°
